Simultaneous Nadir Overpasses (SNOs) Predictions

Prediction of SNOs between GOES-17 and LANDSAT-8 Satellite Orbit:

Table of predicted SNOs for the next 14.0 days since TLE Epoch: 5/6/2023
Index Date Time (GOES-17) GOES-17 Lat,Lon LANDSAT-8 Lat,Lon Distance(km) Time Diff (sec)
1 05/07/2023 17:09:24 -0.00,-104.75 0.03,-104.77 4.20 80
2 05/09/2023 16:59:51 0.00,-104.74 -0.64,-101.82 332.76 80
3 05/10/2023 05:21:14 -0.00,-104.70 -0.50,-107.00 261.87 80
4 05/12/2023 05:06:20 -0.00,-104.69 0.14,-104.04 73.90 80
5 05/14/2023 04:54:06 -0.00,-104.68 0.79,-101.08 410.22 80
6 05/14/2023 17:15:20 0.00,-104.72 0.35,-106.23 172.21 80
7 05/16/2023 17:05:46 0.01,-104.72 -0.33,-103.27 164.90 80
8 05/17/2023 05:27:09 -0.01,-104.69 -0.79,-108.46 428.76 80
9 05/19/2023 05:14:53 -0.01,-104.68 -0.20,-105.48 91.54 80
